Regional Weather Roundup
Issued by NWS

Home | Current Version | Previous Version | Graphics & Text | Print | Product List | Glossary On
Versions: 1 2 3 4 5 6 7 8 9 10 11 12 13 14 15 16 17 18 19 20 21 22 23 24 25 26 27 28 29 30 31 32 33 34 35 36 37 38 39 40 41 42 43 44 45 46 47 48 49 50
000
ASUS43 KLMK 232002
RWRKY
KENTUCKY REGIONAL WEATHER ROUNDUP
NATIONAL WEATHER SERVICE LOUISVILLE KY
300 PM EST FRI FEB 23 2018

NOTE "FAIR" INDICATES FEW OR NO CLOUDS BELOW 12,000 FEET
WITH NO SIGNIFICANT WEATHER AND/OR OBSTRUCTIONS TO VISIBILITY.

KYZ001>023-026-027-061>063-070>075-232100-
WESTERN AND SOUTH CENTRAL KENTUCKY

CITY           SKY/WX    TMP DP  RH WIND       PRES   REMARKS
PADUCAH        PTSUNNY   59  55  87 SE8       30.20F
HENDERSON      FAIR      54  49  83 CALM      30.24F
OWENSBORO      CLOUDY    55  51  86 NW13      30.26R
HOPKINSVILLE   FAIR      73  59  61 S8        30.20F
BOWLING GREEN  FAIR      75  63  66 SW12G24   30.22F
GLASGOW        NOT AVBL
$$

KYZ024-025-028>034-038-045-046-053-232100-
NORTH CENTRAL KENTUCKY

CITY           SKY/WX    TMP DP  RH WIND       PRES   REMARKS
LOUISVILLE/SDF CLOUDY    67  61  81 SW10      30.22F
LOUISVILLE/LOU CLOUDY    67  63  87 SW14      30.23S
FORT KNOX      CLOUDY    66  62  89 SW7       30.23F
$$

KYZ035>037-039>044-047>052-055>060-089>105-232100-
NORTHEAST KENTUCKY

CITY           SKY/WX    TMP DP  RH WIND       PRES   REMARKS
LEXINGTON      FAIR      72  60  66 SW16G23   30.22F
COVINGTON      CLOUDY    63  61  93 SW9       30.21S
FRANKFORT      FAIR      69  61  75 SW12      30.20F
$$

KYZ054-064>069-076>088-106>120-232100-
SOUTHEAST KENTUCKY

CITY           SKY/WX    TMP DP  RH WIND       PRES   REMARKS
JACKSON        PTSUNNY   77  57  50 VRB7G21   30.26F
LONDON         FAIR      76  55  48 W14G22    30.27F
SOMERSET       NOT AVBL
MIDDLESBORO    FAIR      77  57  50 S12G20    30.28F
MONTICELLO     NOT AVBL
$$





USA.gov is the U.S. government's official web portal to all federal, state and local government web resources and services.